Location: Burleson Fire Department Station 2
(32.5391°N, 97.3075°W)
Time: 01:11:54
(UTC+00:00)

NOAA 15 - Pass Details

Date: 15 December 2025
Orbit: 793 x 810 km, 98.5° (Epoch: 20 January)

Event Time Altitude Azimuth Distance (km) Brightness Sun altitude
Rises 12:26:33 0° 38° (NE) 3,300 8.0 -11.9°
Reaches altitude 10° 12:30:17 10° 66° (ENE) 2,363 7.7 -11.1°
Maximum altitude 12:32:38 13° 93° (E) 2,150 8.1 -10.7°
Drops below altitude 10° 12:34:59 10° 120° (ESE) 2,355 8.6 -10.2°
Sets 12:38:40 0° 147° (SSE) 3,278 8.8 -9.5°
